Regional Weather Roundup
Issued by NWS Northern Indiana

Home | Current Version | Previous Version | Graphics & Text | Print | Product List | Glossary On
Versions: 1 2 3 4 5 6 7 8 9 10 11 12 13 14 15 16 17 18 19 20 21 22 23 24 25 26 27 28 29 30 31 32 33 34 35 36 37 38 39 40 41 42 43 44 45 46 47 48 49 50
000
ASUS43 KIWX 030310
RWRIWX

KIWX WEATHER ROUNDUP
NATIONAL WEATHER SERVICE NORTHERN INDIANA
1100 PM EDT TUE SEP 02 2014

NOTE: "FAIR" INDICATES FEW OR NO CLOUDS BELOW 12,000 FEET WITH NO
SIGNIFICANT WEATHER AND/OR OBSTRUCTIONS TO VISIBILITY.

* THESE STATIONS ARE NOT UNDER NWS QUALITY CONTROL. THEY ALSO MAY NOT
  REPORT WEATHER SUCH AS PRECIPITATION OR FOG.

INZ001>027-030400-
NORTHERN INDIANA

CITY           SKY/WX    TMP DP  RH WIND       PRES   REMARKS
GARY*          PTCLDY    66  64  93 CALM      29.95R
VALPARAISO     CLEAR     68  64  87 CALM      29.96R
MICHIGAN CITY* PTCLDY    63  63 100 CALM      29.96R
LAPORTE*       PTCLDY    64  64 100 CALM      29.96S
KNOX*          MOCLDY    67  63  88 CALM      29.95R
SOUTH BEND     CLEAR     67  61  81 SE3       29.96R
GOSHEN         CLEAR     65  62  90 CALM      29.97R
MONTICELLO*    CLEAR     68  68  98 CALM      29.97R
LOGANSPORT*    CLEAR     64  63  94 S5        29.98R
ROCHESTER*     CLEAR     72  66  83 S3        29.97R
WARSAW*        CLEAR     63  63 100 CALM      29.97R
ANGOLA*        CLEAR     63  55  77 CALM      29.97S
FORT WAYNE     PTCLDY    65  64  97 CALM      29.97R
HUNTINGTON*    PTCLDY    68  67  96 SW3       29.97R
PERU/GRISSOM   PTCLDY    66  66 100 SW7       29.98R
MARION*        PTCLDY    66  65  95 SW3       29.99R FOG

$$
INZ028>050-030400-
CENTRAL INDIANA

CITY           SKY/WX    TMP DP  RH WIND       PRES   REMARKS
LAFAYETTE      CLEAR     68  68 100 CALM      29.97R
KOKOMO*        PTCLDY    66  64  94 SW6       29.98R
MUNCIE*        CLEAR     70  65  84 SW3       29.98R
INDIANAPOLIS   CLEAR     68  65  90 SW8       29.99R

$$
MIZ043>046-050>051-056>058-064>065-071>073-077>080-030400-
SOUTHWEST LOWER MICHIGAN

CITY           SKY/WX    TMP DP  RH WIND       PRES   REMARKS
BATTLE CREEK   CLEAR     65  60  84 CALM      29.96R
BENTON HARBOR  CLEAR     63  62  97 CALM      29.94R
COLDWATER*     CLEAR     64  62  95 CALM      29.96S
HILLSDALE*     CLEAR     61  61  99 CALM      29.98R
HOLLAND        CLEAR     64  62  93 CALM      29.95R
GRAND RAPIDS   CLEAR     66  61  84 SW3       29.95R
KALAMAZOO      PTCLDY    62  59  90 S3        29.96R
STURGIS*       CLEAR     61  61 100 CALM      29.97R
THREE RIVERS*  CLOUDY    64  61  89 S5        29.96R

$$
OHZ001>008-015>018-024>025-030400-
NORTHWEST OHIO

CITY           SKY/WX    TMP DP  RH WIND       PRES   REMARKS
WAUSEON*       FAIR      63  61  94 CALM      29.96R
DEFIANCE       PTCLDY    66  62  87 CALM      29.97R
FINDLAY        PTCLDY    67  65  93 SW3       29.96R
TOLEDO EXPRESS PTCLDY    65  63  93 CALM      29.95R
TOLEDO METCALF PTCLDY    68  64  87 CALM      29.96R
LIMA           CLEAR     69  66  90 SW3       29.98R

$$
&&



USA.gov is the U.S. government's official web portal to all federal, state and local government web resources and services.